Vorticity
2 3 4 6 7 6 6 4 9 7 12 20 5 -2 3 3 4 4 4 4 6 4 7 10 6 6 8 8 6 7 8 8 7 7 7 7 7 6 6 7 7 8 7 8 7 7 8 7 7 7 6 7 8 8 8 8 8 7 7 6 6 5 4 4 4 5 5 5 6 5 4 3 2 4 4 3 6 7 5 6 6 5 4 5 7 9 9 9 10 6 4 6 6 5 6 5 5
3 5 6 5 7 5 4 8 12 10 11 18 7 -2 2 4 4 4 5 5 5 6 9 8 4 4 6 5 5 6 5 7 7 7 6 6 7 6 7 8 8 9 8 9 8 7 7 6 6 7 6 7 7 7 7 6 6 5 5 4 4 5 4 4 4 4 5 6 5 4 3 2 2 3 4 4 6 7 7 6 6 6 5 5 7 10 10 9 10 8 5 5 3 3 5 5 5
5 6 7 4 5 2 6 15 15 13 11 12 9 2 1 4 7 3 2 4 5 7 8 6 7 7 8 5 5 6 5 7 7 6 6 6 7 6 7 8 8 9 9 10 9 6 7 8 7 7 6 6 6 5 5 4 4 4 4 4 4 4 4 4 4 5 5 5 4 3 3 2 3 3 4 5 5 6 7 6 5 6 6 6 7 9 10 9 10 9 5 4 3 3 6 6 6
5 5 4 2 3 2 9 14 10 12 12 13 10 4 2 2 5 1 -0 6 7 8 7 5 7 9 9 7 5 5 4 6 7 6 6 6 6 6 7 8 8 8 9 9 9 8 8 7 6 6 5 5 5 4 4 4 5 5 5 4 4 4 4 4 5 6 6 6 5 5 5 3 4 4 6 7 7 8 7 7 7 8 7 8 9 8 10 10 9 9 5 3 5 6 7 7 7
5 1 1 3 3 3 10 11 7 12 13 14 10 4 4 2 2 2 3 7 9 12 11 5 3 7 8 8 6 5 6 6 7 6 5 7 6 6 7 8 8 8 8 8 8 8 7 7 6 6 5 5 5 5 5 6 6 6 6 5 4 5 5 6 6 7 6 7 7 8 9 9 10 9 10 10 9 9 6 7 8 11 13 11 7 8 12 10 9 10 6 5 8 9 8 7 9
3 2 4 6 4 2 12 13 8 11 13 11 8 6 5 4 2 3 6 6 10 13 12 8 5 5 8 10 8 7 8 6 8 6 4 7 6 6 7 7 7 7 7 7 7 7 7 7 6 6 6 6 6 6 6 6 6 6 6 6 6 8 9 7 8 8 6 7 7 8 11 12 14 12 9 9 9 9 9 9 8 10 13 11 8 9 13 10 10 10 9 9 9 9 7 7 8
1 3 3 4 4 3 9 8 4 10 16 9 4 7 4 3 3 2 5 6 10 11 9 9 7 5 7 10 7 7 8 7 10 7 5 8 6 5 6 6 6 6 6 7 7 7 7 7 6 7 7 7 7 6 6 5 6 7 8 8 9 10 9 8 10 9 5 5 6 6 8 9 10 10 10 9 10 10 10 10 9 10 10 10 8 9 14 11 11 10 10 11 7 8 7 7 7
1 2 2 4 4 2 5 3 2 9 17 10 2 8 7 3 1 1 4 6 9 9 8 6 5 5 6 8 6 6 7 8 10 7 6 9 7 5 6 7 6 6 7 7 7 8 7 6 6 6 6 6 7 6 6 6 8 8 8 8 8 9 7 6 10 11 6 5 8 8 9 11 10 10 11 9 9 8 8 9 9 9 9 10 8 12 17 11 13 14 13 13 7 9 8 6 6
2 2 2 5 4 -0 3 2 -0 4 17 20 8 7 10 3 -1 3 5 8 9 9 9 6 7 6 6 9 6 6 6 7 8 7 7 8 7 5 7 7 6 7 6 7 7 8 7 7 6 6 6 6 7 7 7 7 8 8 7 7 6 6 6 8 12 13 10 9 14 13 11 13 10 8 9 7 6 7 8 9 8 8 8 9 9 13 12 7 13 14 14 15 10 8 7 5 5
2 2 1 4 3 -0 2 2 -0 1 11 22 12 3 9 4 -0 5 6 8 10 10 11 10 10 4 5 9 6 6 6 6 6 7 7 7 7 6 7 7 7 7 7 8 8 8 7 7 7 6 6 7 7 7 8 8 8 8 7 6 6 6 7 10 11 10 9 8 11 11 9 8 8 8 8 7 7 7 7 8 9 8 9 8 8 10 9 8 11 8 8 9 6 5 6 7 7
3 1 2 3 2 5 4 -0 3 3 5 17 13 7 9 3 1 5 6 8 8 10 10 8 9 3 4 8 6 6 6 6 5 7 8 6 7 6 7 7 7 7 7 9 8 8 8 7 7 7 7 7 7 7 7 8 8 8 7 6 7 6 6 7 5 5 8 5 6 8 8 7 6 8 8 8 7 7 7 8 9 8 9 8 6 9 10 10 9 6 6 2 0 3 4 8 9
3 1 2 1 3 7 2 -1 6 4 6 14 12 14 10 -1 2 4 6 11 8 9 10 7 6 3 4 8 7 6 5 6 5 8 9 7 7 6 7 6 6 7 7 8 8 8 8 8 7 7 7 6 7 7 6 7 8 7 7 7 6 5 4 7 7 7 7 4 5 6 8 8 6 7 8 7 6 7 7 8 11 10 9 9 8 10 11 9 9 9 9 6 5 7 7 7 8
3 2 2 0 2 3 1 2 3 0 6 9 7 16 11 -1 4 4 6 10 7 8 9 7 1 -1 4 7 7 5 5 7 6 9 9 8 8 7 7 7 7 7 7 8 8 9 9 8 7 6 6 6 7 6 7 6 7 7 6 5 4 3 3 7 10 9 7 5 6 5 7 8 7 8 7 7 7 8 9 9 13 15 11 11 10 11 12 9 9 10 11 10 9 9 8 7 5
2 3 2 1 1 1 3 3 3 1 7 8 6 16 8 1 6 3 6 8 7 8 8 9 1 -2 6 7 5 5 6 7 6 8 8 8 8 8 8 7 7 7 7 8 8 9 8 7 6 6 6 6 7 7 7 6 6 6 5 4 3 4 4 6 9 11 9 7 6 5 8 8 7 8 8 9 11 12 12 10 13 15 13 12 12 13 12 8 9 11 9 8 8 8 8 7 7
2 3 2 2 1 1 2 5 8 3 13 20 13 17 6 0 7 3 6 9 8 7 5 9 4 2 8 8 7 7 6 7 6 7 8 8 8 8 8 8 7 7 7 8 8 8 7 7 6 7 7 6 7 7 7 6 7 6 5 5 4 5 5 6 7 10 9 7 6 7 8 8 8 7 8 12 14 14 13 11 12 12 12 12 13 13 11 9 10 9 7 7 8 8 8 7 7
3 3 2 2 2 2 2 7 9 13 43 44 17 18 8 -1 6 4 6 9 6 6 8 11 9 4 6 9 9 8 7 7 6 6 8 8 8 8 8 9 8 8 8 7 8 7 7 8 8 8 8 7 6 6 6 7 7 7 6 5 5 5 5 6 7 9 10 8 6 7 8 7 8 8 8 13 15 13 12 11 11 10 10 9 10 11 10 9 8 7 8 8 8 8 7 6 5
4 4 3 3 5 5 1 7 16 29 50 40 19 18 5 1 6 4 6 10 8 8 11 13 11 3 3 10 10 8 7 8 7 5 8 8 8 9 8 9 8 9 8 7 7 6 7 8 9 9 8 8 7 7 7 7 7 7 6 5 5 5 4 7 8 9 9 9 8 7 7 6 9 9 7 12 14 12 11 9 9 8 8 8 8 9 9 8 7 6 7 8 8 8 7 5 5
5 5 4 4 7 5 2 9 17 31 40 29 24 14 -1 4 5 2 6 9 9 8 11 11 9 3 1 9 10 8 7 7 7 6 8 8 8 9 9 8 8 9 9 8 7 6 6 7 9 9 8 7 7 8 6 6 7 7 7 7 6 5 5 6 7 8 8 9 8 7 6 5 8 9 7 11 13 11 11 9 7 8 8 8 8 8 8 7 6 7 7 8 8 6 6 6 6
4 5 5 5 7 4 6 12 6 31 63 44 16 2 -1 6 2 2 5 9 10 6 9 10 7 4 2 8 10 8 7 7 7 6 7 8 9 9 9 9 7 9 9 9 8 6 6 6 7 8 9 7 7 7 6 6 7 9 9 7 6 6 7 6 7 6 5 6 8 10 10 6 5 6 9 12 12 11 10 8 8 8 8 9 8 6 5 5 6 7 7 7 7 6 6 6 6
4 5 5 6 7 4 7 15 3 16 45 28 3 -2 2 4 0 2 3 7 12 8 9 8 6 6 6 7 8 7 6 6 5 5 7 6 8 9 8 9 9 8 8 8 7 6 5 5 7 8 9 8 7 6 6 7 7 8 8 8 7 6 7 7 6 5 4 6 8 9 10 7 4 5 10 13 12 12 9 7 9 10 10 9 6 5 4 5 6 6 7 7 6 6 7 7 9
3 4 5 7 7 7 7 10 7 7 14 10 5 1 -1 3 -3 -2 3 2 8 13 11 7 6 8 8 6 6 7 5 6 5 4 5 6 7 8 7 7 8 8 7 7 6 5 5 6 7 8 9 8 7 6 6 6 5 6 7 7 6 5 6 6 5 5 5 7 7 6 5 6 6 6 9 12 13 12 9 7 9 9 8 7 4 3 4 5 6 7 7 6 7 8 9 10 12
2 3 3 6 4 7 10 5 5 9 10 8 5 -1 1 5 -3 -1 9 5 6 11 10 8 7 7 7 5 5 5 5 5 5 3 5 7 8 7 7 6 7 7 6 7 5 4 6 7 7 7 8 9 8 8 7 5 5 6 7 6 6 6 6 5 6 7 8 7 6 5 5 6 6 6 8 12 13 12 10 7 7 7 5 4 3 3 4 6 8 8 8 8 9 11 12 13 12
1 2 2 4 4 5 9 4 3 4 5 6 4 2 3 4 2 3 8 8 8 8 8 7 6 7 5 5 5 4 5 6 6 5 5 7 8 7 6 6 7 7 6 7 6 5 5 7 7 6 7 8 9 8 7 6 6 6 7 7 8 8 8 7 8 9 9 8 7 6 5 6 7 7 9 13 13 12 11 6 5 5 4 4 3 4 6 8 9 8 8 10 12 12 12 11 9
2 3 2 3 3 5 7 4 2 1 4 8 5 4 2 1 4 4 4 7 9 8 8 7 8 8 5 5 5 4 5 6 6 5 4 6 7 7 7 7 7 7 6 6 7 7 6 7 7 7 6 5 5 5 5 6 7 8 8 9 10 10 10 9 8 8 9 8 6 5 5 7 7 7 8 13 13 12 11 8 6 5 5 5 5 6 7 9 9 9 11 12 13 10 9 8 8
5 3 2 4 3 4 10 9 4 3 6 9 9 9 4 -1 1 3 5 5 7 8 6 7 9 8 6 6 4 4 5 5 6 5 3 6 6 7 7 7 6 6 6 6 6 8 8 7 6 8 8 6 5 5 5 5 7 9 8 9 9 10 9 8 7 8 9 7 5 5 7 7 8 8 8 12 14 12 11 9 7 6 5 6 6 8 8 9 11 12 13 12 9 7 8 8 8
9 6 2 4 3 4 11 12 7 5 5 8 12 12 3 0 1 3 5 3 6 8 7 7 7 8 7 5 4 4 5 5 6 5 4 4 5 7 7 7 7 6 6 5 5 6 7 7 6 7 8 8 7 7 6 5 7 9 8 7 6 7 7 7 8 8 8 6 6 6 7 7 8 9 8 12 14 12 11 10 9 8 7 7 8 8 9 12 13 13 11 8 8 7 8 9 9
9 9 4 4 2 5 9 6 5 5 6 9 10 6 2 2 0 1 5 4 6 7 9 10 5 8 9 4 5 4 4 5 5 5 5 4 5 6 6 7 6 6 6 6 6 6 7 7 6 6 7 7 6 6 6 6 7 8 7 6 6 7 6 6 7 9 9 7 7 6 7 7 8 8 8 11 14 13 11 10 10 9 8 8 9 10 12 13 12 10 8 8 8 7 7 8 9
9 8 6 6 3 6 8 5 5 5 6 8 7 4 4 6 1 -0 2 2 6 5 6 13 9 8 10 6 5 5 4 4 4 6 5 5 6 6 7 7 6 7 6 6 6 7 8 7 5 4 6 6 4 3 4 4 6 7 7 5 5 6 6 7 7 9 10 8 7 7 8 8 7 8 9 10 12 13 10 9 9 9 9 10 12 13 13 11 9 8 8 8 7 6 6 7 8
9 9 7 5 4 7 10 9 6 5 8 6 7 11 8 6 4 -1 1 3 5 3 3 10 11 8 10 9 6 6 6 3 4 6 5 4 5 6 6 6 6 6 6 6 6 6 7 7 5 3 5 6 5 4 4 3 3 5 6 5 5 5 6 7 7 9 10 8 7 8 9 7 8 8 9 10 11 12 11 10 9 10 11 12 13 12 11 9 8 8 7 6 5 5 6 6 8
9 9 7 3 2 5 9 10 6 5 10 7 5 11 7 5 10 3 -0 5 5 3 4 7 8 8 10 11 8 6 6 5 4 5 5 3 4 6 6 6 6 5 5 6 6 7 7 7 6 6 6 7 5 5 5 4 3 4 5 5 5 5 5 6 7 8 9 9 7 8 9 7 7 8 9 10 11 12 12 11 11 11 12 12 11 10 9 8 7 7 5 5 4 5 6 6 7
9 9 7 4 3 5 7 8 8 6 5 9 9 6 5 8 12 7 0 2 3 4 5 5 6 7 8 12 12 8 6 6 4 4 6 3 3 5 5 6 6 6 5 5 7 8 7 8 8 7 7 6 5 5 6 4 3 4 5 5 5 5 5 5 7 8 9 9 8 9 10 9 8 7 8 9 10 11 10 11 11 10 10 9 9 8 8 8 7 7 6 5 5 5 6 6 6
10 10 8 5 3 5 6 3 9 12 1 9 20 8 2 8 7 8 10 3 -2 3 5 3 4 5 6 10 14 11 8 6 5 4 5 4 3 3 6 7 6 6 6 5 6 7 7 9 9 7 6 6 5 6 7 6 4 5 5 5 5 5 5 5 6 7 7 9 9 9 10 10 9 7 7 7 7 8 7 8 8 8 8 7 6 6 7 7 6 6 5 5 5 5 5 5 5
11 11 6 4 3 3 5 3 7 17 10 8 21 16 5 10 10 11 17 11 -2 0 6 4 3 5 5 7 12 12 10 7 6 4 4 5 3 2 5 6 6 6 6 6 5 5 6 8 10 9 6 7 7 7 8 8 6 5 5 6 6 6 6 6 5 5 6 7 8 8 8 9 10 9 7 6 6 6 6 5 5 6 6 5 5 5 5 6 6 6 5 5 5 4 4 4 5
12 14 8 4 5 3 6 10 3 8 15 4 3 9 5 6 12 12 14 19 9 -4 -0 6 4 4 5 7 8 8 10 9 5 4 3 5 5 2 4 5 6 6 6 6 5 5 6 7 10 10 8 7 6 7 8 7 6 5 5 6 7 6 6 6 6 6 5 6 6 6 7 8 9 10 8 6 5 5 5 5 5 5 5 5 5 5 6 5 5 6 5 4 5 4 4 4 4
12 14 10 4 6 7 7 12 6 -3 8 10 -0 1 3 0 7 9 9 25 25 -2 -8 4 5 3 4 6 7 5 8 10 7 6 3 4 6 3 3 4 5 6 6 7 6 5 5 5 8 10 9 7 5 7 8 6 5 4 4 5 6 6 5 6 6 7 6 5 6 6 6 6 7 9 9 8 6 6 6 5 4 4 4 4 4 5 5 6 5 5 5 5 4 4 3 4 5
11 11 7 3 4 10 9 9 10 -1 -4 9 11 5 3 3 5 3 4 23 30 7 -4 4 6 6 4 3 6 6 7 10 10 9 6 4 5 4 4 3 3 6 5 6 7 6 5 5 7 10 10 8 6 6 7 7 4 3 4 3 4 5 4 5 6 6 6 5 6 6 6 6 7 7 8 8 8 7 7 7 6 5 4 4 4 4 4 5 5 4 5 6 6 5 4 5 6
11 12 6 3 0 7 12 7 10 9 -4 -4 4 3 -2 -0 3 1 2 15 21 12 4 7 5 4 5 3 3 7 6 7 11 13 11 7 4 4 5 3 3 5 4 5 8 7 6 5 5 8 10 10 9 7 7 8 6 4 4 3 3 3 3 5 6 7 6 6 6 6 6 6 7 7 7 8 8 7 7 7 7 6 5 5 4 4 3 3 4 4 4 5 6 7 6 7 8
11 13 7 5 2 -0 3 3 5 10 6 -2 1 7 3 -1 1 2 4 7 12 12 8 9 7 2 5 3 1 6 7 5 8 12 14 13 8 4 5 5 3 4 4 4 7 8 7 5 5 5 7 9 9 10 9 9 8 6 5 5 4 3 4 4 6 6 6 6 5 6 7 7 7 7 7 7 7 7 7 7 7 7 7 6 5 5 4 3 3 3 3 4 4 5 5 6 7
9 13 8 5 6 3 0 0 2 6 9 5 5 12 10 2 2 4 5 3 4 12 12 9 6 1 4 4 1 5 7 5 6 8 11 14 12 7 5 5 4 4 5 4 5 8 7 6 6 4 5 7 7 8 9 10 10 9 8 8 7 6 5 4 5 6 6 6 5 5 6 7 7 7 7 7 6 6 6 6 7 7 6 7 7 6 5 4 4 3 3 4 4 3 4 5 6
7 12 10 6 5 6 5 3 3 5 8 6 5 13 13 3 -1 3 8 5 1 11 19 15 6 3 6 5 1 4 5 4 5 5 8 10 12 12 8 5 4 5 5 4 3 5 8 8 6 5 3 4 5 5 6 7 7 7 8 9 9 8 6 6 6 6 6 6 5 5 4 5 6 7 7 7 8 7 6 6 6 6 6 6 7 7 7 6 6 5 4 4 4 4 3 4 5
6 11 13 10 6 4 5 5 3 4 5 4 1 8 15 9 -2 -3 8 11 2 3 15 16 7 1 3 4 3 5 5 5 5 5 5 7 9 12 11 8 5 5 5 5 3 4 7 8 8 6 4 3 2 2 3 5 5 5 6 7 9 9 8 8 8 8 8 7 7 6 4 5 5 5 6 7 8 8 7 7 7 6 6 6 6 6 7 7 7 8 6 5 5 4 3 3 4
5 10 14 11 8 5 4 5 6 5 5 6 1 -2 7 12 2 -4 5 12 7 4 8 13 10 4 3 6 5 3 4 5 6 5 4 5 8 10 11 10 7 6 6 5 4 4 5 7 9 7 5 4 2 1 2 3 4 5 5 7 9 10 9 8 8 8 8 8 8 7 5 5 4 4 4 5 6 7 7 8 8 8 7 8 8 7 6 6 7 8 7 6 5 5 4 4 5
2 8 13 11 9 8 5 5 6 5 5 7 6 -1 -1 8 10 6 6 7 9 11 9 9 13 12 8 8 7 4 4 5 5 6 6 4 5 8 10 11 10 8 8 7 6 6 4 5 9 9 7 7 4 2 1 2 4 5 5 6 8 8 8 8 9 8 8 8 9 9 8 6 5 4 3 3 4 5 5 6 7 7 8 9 9 9 9 8 8 7 7 7 6 6 6 5 6
3 6 11 11 9 7 5 5 3 3 5 5 6 6 1 0 5 9 8 4 6 10 9 8 13 13 9 6 6 5 5 5 4 5 6 6 5 6 7 10 11 10 9 8 8 7 5 4 6 7 7 8 7 4 3 2 3 5 4 5 5 6 6 6 8 9 9 8 8 10 10 8 8 7 4 3 3 4 4 4 5 5 6 7 9 10 11 11 10 9 8 7 7 8 8 8 8
5 5 8 10 6 2 3 7 5 1 4 6 7 9 6 -1 -1 5 8 6 7 9 7 10 15 11 6 7 8 6 5 5 6 5 4 6 6 6 7 9 11 12 10 8 9 8 7 6 6 6 6 8 8 7 6 5 4 5 4 4 4 4 5 6 7 8 8 9 9 10 11 10 9 8 6 5 4 4 4 4 4 3 4 5 6 8 9 10 11 11 10 9 8 8 9 9 9
7 4 7 9 5 0 -0 4 5 1 2 6 8 9 8 5 4 7 10 9 10 10 4 5 16 14 7 8 10 7 6 5 5 5 5 5 5 6 7 8 10 13 12 9 9 9 9 9 7 5 5 6 8 9 9 8 6 5 4 3 5 4 4 5 6 7 8 9 11 11 10 10 9 9 8 7 6 6 6 5 4 4 5 6 6 7 7 8 9 10 11 11 9 8 8 8 9
9 5 7 8 4 2 2 2 3 3 2 2 6 9 8 8 8 6 8 10 10 11 5 0 11 20 14 9 9 8 8 7 5 3 5 5 5 8 9 8 9 11 13 12 9 9 10 10 9 7 5 5 7 8 8 9 9 7 5 3 4 5 5 4 5 8 9 9 10 11 11 10 8 9 8 8 8 7 6 6 6 6 7 8 7 6 6 7 8 8 10 11 11 10 8 7 8
10 5 6 6 4 3 4 4 3 4 7 6 7 9 7 7 10 6 3 5 8 12 10 0 2 17 21 14 8 7 5 5 5 2 5 6 5 7 10 11 10 7 9 13 11 9 9 9 10 8 7 6 6 8 8 8 8 8 7 5 4 5 6 5 4 6 8 9 9 9 11 11 9 8 8 9 9 7 8 8 7 7 7 8 8 8 7 7 8 8 8 9 10 10 10 8 7
10 4 2 2 1 3 4 4 5 3 6 11 10 10 11 10 9 7 4 4 5 9 14 7 -2 5 19 18 9 7 4 4 7 3 2 6 4 5 8 10 10 6 5 9 11 10 8 8 10 9 9 8 7 6 7 7 7 8 8 7 6 6 6 7 5 5 6 7 7 7 8 10 10 9 8 9 8 8 9 9 8 7 7 8 7 8 8 8 8 8 9 9 9 10 10 8 7
12 5 1 0 -2 -0 2 2 4 3 -0 7 10 8 12 10 5 6 7 6 3 4 11 13 4 -1 8 16 12 9 5 3 9 7 2 5 6 5 7 7 7 5 4 5 8 10 10 8 8 9 9 10 10 8 6 6 7 7 7 7 7 6 6 7 6 5 5 5 6 6 6 9 9 8 7 7 7 8 8 7 7 7 8 8 7 7 8 8 8 8 9 9 9 10 10 9 8
14 10 3 2 -0 -0 3 1 3 4 -0 4 8 7 10 11 9 10 8 6 3 2 5 10 11 6 5 11 13 17 21 14 8 6 1 3 6 5 6 5 5 6 5 4 4 7 10 10 8 8 8 9 11 9 7 6 6 6 7 6 6 6 6 7 7 6 5 4 5 5 6 7 7 7 7 7 7 8 7 7 7 7 7 7 7 7 7 7 8 7 7 9 9 9 9 9 9
12 12 2 -0 2 2 4 3 3 6 4 2 4 7 10 11 11 10 7 7 6 4 5 8 13 11 6 7 10 25 43 32 9 2 2 3 5 6 6 4 4 5 6 6 5 4 6 9 9 8 8 8 10 11 8 7 6 6 7 7 7 6 5 6 6 6 5 5 5 4 4 6 7 7 7 7 7 7 7 7 6 7 7 6 6 6 7 7 8 7 7 7 7 8 8 9 8
9 11 4 2 8 6 3 2 2 7 7 3 3 6 8 8 8 8 6 7 7 7 8 8 13 13 8 5 5 16 36 27 5 0 3 2 4 5 6 5 4 4 5 6 6 5 5 7 9 9 9 7 8 10 10 10 8 6 6 6 7 7 7 6 6 5 6 6 5 4 4 4 5 7 8 7 8 9 9 7 6 6 6 6 6 7 7 7 6 7 7 7 8 8 8 9 8
8 10 11 9 7 3 2 2 0 5 8 4 2 6 8 5 5 8 10 7 4 5 7 5 9 12 10 8 5 6 15 14 5 3 4 3 4 5 5 5 5 4 4 5 6 6 6 6 7 10 11 10 9 8 8 10 11 8 6 5 6 7 7 7 6 5 6 6 5 5 5 4 4 5 7 7 7 9 10 8 6 6 5 5 6 6 6 6 6 6 7 8 8 7 8 8 9
9 10 13 10 4 3 4 4 1 2 8 6 -1 1 7 7 4 5 10 9 3 2 4 4 5 8 9 11 10 7 9 15 15 8 5 5 3 2 3 4 5 3 2 3 5 5 6 6 5 6 7 9 11 11 10 10 11 11 9 6 5 6 7 7 7 6 5 6 6 5 5 5 5 4 5 6 7 9 10 9 7 6 6 5 5 6 6 6 6 6 8 9 8 7 7 8 9
10 8 11 9 6 6 6 5 4 2 6 8 0 -7 -3 4 6 4 4 7 6 2 1 1 2 6 8 10 13 10 11 23 28 15 7 8 6 3 3 2 3 3 2 2 2 2 3 4 4 4 5 6 8 11 12 11 10 11 11 9 6 5 6 7 7 7 6 5 5 6 5 5 6 5 5 6 7 8 9 10 8 7 6 5 5 5 6 6 6 6 6 8 8 8 7 7 8
13 10 11 12 7 5 4 3 4 2 2 8 9 1 -5 -2 3 4 2 4 6 4 2 1 1 3 4 6 11 10 8 19 32 27 15 9 6 4 5 5 3 2 3 4 3 2 1 1 3 4 4 5 5 7 10 11 10 9 10 11 9 7 6 7 8 8 7 6 6 6 6 6 6 6 6 6 6 7 8 9 9 7 6 6 5 5 5 5 5 6 6 6 7 8 8 8 8
14 11 10 12 8 3 4 4 3 2 -1 2 9 9 4 -0 -1 0 3 5 4 3 3 4 4 5 4 2 5 7 5 7 17 24 19 12 9 2 -2 3 6 3 2 3 4 5 3 -0 1 4 4 4 4 5 6 9 10 9 9 10 10 9 7 6 7 8 7 6 6 5 6 7 6 6 7 7 7 7 7 8 9 9 7 6 6 6 6 6 5 5 6 6 7 8 8 8 8
Height
5891 5891 5890 5890 5890 5890 5889 5889 5889 5889 5888 5889 5889 5890 5891 5891 5891 5891 5891 5891 5891 5891 5890 5890 5890 5890 5890 5890 5890 5890 5890 5890 5890 5890 5891 5892 5893 5893 5892 5892 5893 5893 5893 5894 5894 5895 5896 5897 5896 5897 5897 5896 5897 5897 5898 5899 5899 5899 5900 5900 5900 5900 5900 5900 5900 5901 5902 5903 5904 5905 5905 5905 5905 5906 5906 5906 5905 5906 5906 5906 5905 5905 5905 5906 5910 5911 5910 5909 5911 5912 5912 5913 5913 5913 5913 5913 5914
5891 5891 5891 5891 5891 5890 5890 5890 5889 5889 5889 5889 5890 5891 5891 5892 5892 5892 5892 5892 5892 5892 5891 5891 5891 5891 5891 5891 5891 5891 5891 5891 5891 5891 5892 5893 5893 5894 5894 5894 5894 5895 5895 5895 5896 5897 5897 5897 5897 5896 5896 5896 5897 5898 5899 5900 5901 5901 5901 5901 5900 5901 5901 5901 5901 5902 5903 5905 5905 5905 5905 5905 5905 5906 5906 5906 5906 5907 5907 5906 5905 5905 5906 5907 5909 5911 5910 5910 5911 5912 5912 5913 5913 5913 5913 5914 5914
5892 5892 5891 5891 5891 5891 5891 5891 5890 5890 5889 5890 5891 5891 5892 5892 5893 5893 5893 5893 5893 5893 5892 5892 5891 5891 5892 5892 5892 5892 5892 5892 5892 5892 5893 5894 5894 5894 5895 5895 5895 5896 5897 5897 5898 5898 5897 5898 5897 5897 5897 5898 5899 5900 5901 5902 5903 5903 5902 5901 5901 5901 5901 5901 5902 5903 5905 5905 5905 5905 5905 5906 5905 5905 5905 5905 5907 5908 5907 5906 5905 5906 5908 5908 5909 5910 5910 5911 5911 5912 5912 5913 5913 5913 5914 5915 5915
5892 5892 5891 5892 5892 5892 5892 5892 5891 5891 5890 5890 5891 5892 5892 5893 5893 5893 5894 5894 5893 5894 5893 5893 5892 5892 5893 5893 5893 5893 5893 5893 5894 5893 5893 5895 5895 5895 5896 5896 5897 5898 5898 5898 5899 5899 5898 5899 5898 5898 5899 5900 5901 5901 5902 5903 5904 5904 5904 5903 5902 5902 5902 5902 5904 5906 5906 5906 5905 5906 5906 5906 5905 5905 5905 5905 5907 5908 5907 5906 5905 5906 5909 5910 5909 5909 5911 5911 5910 5911 5912 5912 5913 5913 5914 5915 5916
5893 5892 5892 5892 5892 5893 5893 5893 5893 5893 5892 5892 5892 5892 5893 5893 5894 5894 5894 5894 5894 5894 5894 5894 5893 5893 5893 5894 5894 5894 5894 5895 5895 5895 5895 5895 5896 5896 5897 5897 5898 5899 5899 5900 5900 5900 5900 5900 5900 5901 5901 5902 5902 5903 5904 5905 5906 5905 5905 5904 5903 5903 5903 5903 5906 5908 5907 5906 5906 5906 5906 5906 5906 5906 5906 5906 5907 5907 5907 5907 5906 5906 5909 5911 5909 5909 5911 5911 5910 5910 5912 5913 5913 5914 5915 5916 5916
5893 5892 5893 5893 5893 5893 5894 5894 5894 5894 5893 5893 5893 5893 5894 5894 5894 5895 5894 5894 5894 5895 5895 5895 5895 5894 5894 5895 5895 5895 5896 5896 5896 5896 5896 5896 5897 5898 5898 5899 5899 5900 5901 5901 5901 5902 5902 5902 5902 5902 5903 5903 5904 5905 5905 5906 5907 5906 5906 5905 5905 5904 5904 5905 5909 5910 5908 5907 5907 5907 5907 5907 5907 5908 5908 5906 5906 5906 5907 5908 5907 5906 5908 5910 5909 5909 5910 5911 5910 5910 5912 5913 5914 5915 5915 5916 5917
5893 5893 5893 5894 5894 5894 5895 5894 5894 5894 5894 5894 5894 5895 5895 5895 5895 5895 5895 5894 5894 5895 5895 5895 5896 5895 5895 5896 5896 5896 5897 5897 5898 5898 5898 5897 5898 5899 5899 5900 5900 5901 5902 5902 5903 5903 5904 5904 5904 5904 5904 5905 5905 5906 5906 5907 5907 5907 5907 5906 5906 5905 5905 5908 5911 5911 5908 5907 5908 5909 5908 5908 5908 5909 5909 5907 5906 5906 5907 5908 5908 5908 5909 5910 5909 5909 5910 5911 5910 5910 5912 5913 5914 5914 5915 5916 5917
5893 5893 5894 5894 5895 5896 5896 5895 5895 5894 5894 5894 5895 5896 5896 5897 5897 5896 5895 5895 5895 5896 5896 5896 5897 5897 5896 5897 5897 5897 5898 5899 5899 5899 5899 5898 5899 5900 5900 5901 5901 5902 5903 5904 5904 5905 5905 5905 5905 5905 5905 5906 5906 5906 5907 5907 5908 5908 5908 5907 5906 5905 5906 5909 5912 5911 5908 5908 5910 5911 5910 5910 5910 5910 5909 5908 5908 5908 5908 5909 5909 5908 5909 5909 5908 5909 5910 5910 5910 5912 5913 5914 5914 5915 5917 5918 5918
5893 5894 5894 5895 5896 5896 5896 5895 5895 5894 5894 5894 5895 5896 5898 5898 5898 5897 5896 5896 5896 5896 5896 5897 5898 5898 5897 5898 5898 5899 5899 5900 5900 5900 5900 5900 5900 5901 5901 5902 5903 5903 5904 5905 5906 5906 5906 5906 5907 5906 5906 5906 5907 5907 5907 5908 5908 5908 5908 5908 5907 5906 5906 5910 5912 5911 5908 5908 5911 5912 5911 5910 5910 5911 5911 5910 5910 5909 5909 5909 5909 5909 5909 5910 5909 5910 5910 5910 5911 5914 5915 5915 5915 5916 5919 5919 5919
5894 5894 5894 5895 5896 5896 5896 5895 5895 5895 5895 5895 5896 5896 5897 5898 5898 5899 5898 5897 5897 5897 5897 5897 5899 5899 5898 5899 5900 5900 5901 5901 5901 5902 5901 5901 5901 5902 5903 5903 5904 5905 5905 5906 5907 5907 5907 5908 5907 5907 5907 5907 5907 5908 5908 5909 5909 5909 5909 5909 5909 5908 5907 5910 5913 5910 5907 5908 5911 5912 5912 5911 5911 5911 5912 5911 5911 5910 5910 5909 5910 5911 5911 5911 5911 5911 5911 5910 5912 5915 5916 5916 5916 5916 5918 5919 5919
5894 5894 5894 5895 5896 5896 5896 5895 5895 5895 5895 5896 5896 5897 5897 5898 5898 5899 5899 5898 5897 5898 5898 5898 5899 5899 5899 5900 5901 5902 5902 5902 5903 5903 5903 5902 5902 5903 5904 5904 5905 5906 5907 5907 5908 5909 5909 5909 5909 5908 5908 5908 5909 5909 5909 5910 5910 5910 5910 5910 5910 5909 5909 5912 5914 5911 5908 5909 5912 5913 5913 5913 5912 5912 5913 5912 5911 5911 5910 5910 5911 5912 5912 5912 5913 5914 5913 5912 5913 5914 5915 5917 5917 5916 5917 5918 5919
5894 5894 5894 5894 5895 5896 5896 5895 5895 5894 5895 5896 5896 5897 5897 5897 5898 5898 5900 5899 5898 5899 5899 5899 5899 5900 5899 5901 5902 5902 5903 5904 5904 5904 5904 5903 5903 5904 5905 5906 5907 5908 5908 5909 5909 5910 5910 5910 5910 5910 5909 5909 5909 5910 5910 5911 5911 5911 5911 5911 5911 5910 5910 5913 5915 5913 5911 5911 5912 5914 5914 5914 5914 5914 5914 5912 5912 5912 5912 5911 5911 5913 5913 5913 5914 5916 5915 5914 5914 5915 5915 5917 5917 5917 5918 5919 5921
5894 5894 5893 5894 5895 5895 5895 5894 5894 5894 5895 5895 5895 5896 5897 5898 5898 5898 5899 5900 5900 5899 5900 5899 5900 5900 5900 5902 5903 5903 5904 5905 5906 5905 5905 5905 5905 5906 5907 5907 5908 5909 5910 5910 5911 5911 5911 5911 5911 5911 5911 5910 5911 5911 5911 5912 5912 5913 5913 5913 5912 5912 5911 5913 5916 5915 5914 5912 5913 5915 5916 5916 5916 5915 5914 5913 5913 5913 5913 5912 5912 5913 5914 5914 5915 5916 5917 5916 5915 5916 5917 5918 5918 5919 5920 5921 5922
5894 5894 5893 5894 5894 5895 5894 5894 5893 5893 5894 5894 5895 5896 5897 5899 5899 5899 5898 5900 5901 5900 5900 5900 5902 5902 5901 5902 5903 5903 5905 5906 5907 5907 5906 5906 5907 5907 5908 5908 5909 5910 5911 5911 5912 5912 5912 5912 5912 5912 5912 5912 5912 5912 5913 5913 5914 5914 5914 5914 5914 5913 5913 5914 5916 5917 5916 5914 5914 5916 5917 5917 5917 5916 5915 5913 5913 5914 5914 5913 5913 5913 5914 5915 5916 5916 5917 5916 5916 5917 5918 5919 5920 5921 5922 5923 5923
5893 5893 5893 5893 5894 5895 5894 5893 5892 5891 5891 5891 5893 5895 5897 5899 5900 5899 5898 5900 5901 5901 5901 5901 5903 5903 5902 5902 5903 5904 5906 5907 5908 5908 5908 5908 5908 5909 5909 5910 5911 5911 5912 5913 5913 5913 5913 5914 5914 5914 5914 5913 5913 5914 5914 5915 5915 5915 5915 5915 5915 5915 5914 5914 5916 5918 5918 5917 5916 5917 5918 5918 5918 5917 5915 5913 5913 5915 5915 5915 5915 5914 5915 5916 5917 5917 5917 5916 5916 5917 5918 5919 5921 5922 5923 5923 5924
5893 5893 5893 5893 5894 5894 5893 5892 5891 5889 5887 5887 5890 5894 5896 5899 5900 5900 5899 5900 5901 5901 5902 5903 5904 5904 5903 5903 5903 5905 5906 5908 5908 5909 5909 5909 5910 5910 5911 5911 5912 5913 5913 5914 5914 5914 5915 5915 5915 5915 5915 5915 5915 5915 5916 5916 5916 5916 5916 5917 5917 5916 5916 5915 5916 5918 5920 5920 5919 5918 5918 5919 5918 5917 5916 5914 5914 5915 5916 5916 5916 5916 5916 5917 5917 5918 5918 5917 5918 5919 5920 5921 5923 5924 5924 5925 5925
5893 5893 5893 5894 5895 5894 5893 5892 5891 5888 5885 5885 5889 5893 5896 5899 5900 5900 5900 5902 5902 5901 5903 5904 5904 5905 5904 5903 5904 5905 5907 5908 5909 5909 5910 5910 5911 5911 5912 5913 5913 5914 5914 5915 5915 5915 5916 5916 5916 5916 5916 5917 5917 5917 5917 5917 5917 5918 5918 5918 5918 5918 5917 5915 5916 5918 5921 5922 5921 5920 5919 5919 5919 5919 5917 5916 5915 5916 5917 5917 5917 5917 5917 5919 5919 5919 5919 5920 5921 5921 5922 5923 5924 5925 5926 5927 5927
5892 5892 5893 5894 5895 5895 5893 5892 5891 5888 5885 5886 5891 5894 5896 5898 5899 5900 5901 5902 5902 5902 5903 5903 5904 5905 5905 5904 5904 5906 5908 5909 5910 5910 5911 5911 5912 5912 5913 5914 5915 5915 5916 5916 5916 5917 5917 5917 5917 5918 5918 5918 5919 5918 5918 5919 5919 5919 5920 5920 5920 5919 5918 5917 5916 5917 5919 5921 5921 5921 5921 5921 5921 5920 5919 5918 5917 5918 5919 5919 5918 5919 5919 5920 5921 5921 5921 5922 5923 5924 5925 5925 5926 5927 5927 5928 5928
5891 5892 5893 5894 5895 5895 5894 5893 5891 5889 5886 5888 5892 5895 5896 5897 5899 5901 5902 5903 5902 5902 5902 5903 5904 5905 5907 5906 5905 5907 5909 5911 5911 5912 5912 5912 5913 5913 5914 5915 5916 5916 5917 5917 5918 5918 5918 5918 5918 5919 5920 5920 5920 5920 5920 5920 5921 5921 5921 5921 5921 5921 5919 5918 5917 5917 5917 5918 5919 5919 5921 5921 5921 5921 5920 5919 5919 5920 5920 5920 5920 5921 5921 5922 5923 5923 5923 5924 5925 5926 5927 5927 5927 5928 5928 5929 5929
5890 5891 5892 5894 5895 5896 5894 5893 5893 5891 5890 5892 5894 5896 5897 5897 5899 5901 5902 5902 5902 5902 5903 5903 5903 5905 5907 5907 5906 5908 5910 5912 5913 5913 5913 5913 5914 5914 5915 5916 5916 5917 5918 5918 5919 5919 5919 5919 5920 5920 5921 5921 5922 5922 5922 5922 5922 5922 5922 5922 5922 5922 5921 5920 5919 5919 5919 5918 5918 5919 5919 5920 5920 5921 5921 5921 5921 5921 5921 5921 5922 5923 5924 5925 5924 5924 5925 5926 5927 5927 5928 5928 5929 5929 5930 5930 5930
5890 5891 5892 5893 5895 5896 5895 5894 5894 5893 5893 5895 5896 5897 5898 5899 5900 5902 5902 5902 5902 5903 5903 5903 5903 5905 5907 5908 5908 5909 5911 5912 5913 5913 5913 5914 5914 5915 5916 5917 5917 5918 5919 5919 5920 5920 5920 5920 5921 5922 5922 5923 5923 5923 5923 5923 5923 5923 5923 5923 5923 5923 5923 5922 5922 5921 5921 5921 5920 5920 5920 5921 5921 5921 5922 5922 5923 5923 5923 5924 5924 5925 5925 5926 5926 5926 5927 5928 5928 5929 5929 5930 5931 5931 5931 5932 5932
5889 5890 5891 5893 5894 5895 5895 5894 5895 5895 5895 5896 5897 5898 5899 5900 5901 5902 5903 5902 5901 5903 5904 5904 5904 5905 5906 5908 5909 5910 5912 5913 5913 5914 5914 5915 5915 5916 5917 5918 5918 5919 5919 5920 5921 5921 5921 5921 5922 5922 5923 5924 5924 5925 5925 5925 5924 5924 5924 5924 5924 5924 5924 5924 5924 5924 5924 5923 5923 5923 5923 5923 5923 5923 5923 5923 5924 5924 5925 5925 5926 5926 5926 5927 5927 5928 5928 5929 5930 5930 5931 5932 5932 5933 5933 5933 5934
5888 5889 5890 5892 5893 5895 5895 5894 5895 5896 5896 5897 5898 5899 5899 5901 5902 5903 5903 5903 5903 5904 5905 5904 5906 5907 5907 5908 5909 5911 5912 5913 5914 5915 5915 5916 5916 5917 5917 5918 5919 5919 5920 5921 5921 5922 5922 5923 5923 5923 5924 5925 5925 5926 5925 5925 5925 5925 5925 5925 5925 5925 5925 5925 5926 5926 5926 5926 5926 5926 5925 5925 5925 5925 5924 5925 5925 5925 5926 5926 5927 5927 5927 5928 5929 5929 5930 5931 5931 5932 5933 5933 5934 5934 5934 5935 5936
5887 5888 5889 5891 5892 5894 5894 5894 5895 5896 5898 5899 5900 5900 5900 5901 5902 5903 5903 5904 5904 5905 5906 5906 5907 5908 5908 5908 5909 5911 5913 5914 5915 5916 5916 5917 5918 5918 5919 5919 5920 5920 5921 5922 5922 5923 5923 5924 5924 5924 5925 5926 5926 5926 5926 5926 5926 5926 5926 5926 5926 5926 5927 5927 5927 5928 5928 5928 5928 5928 5927 5927 5927 5927 5926 5926 5926 5926 5927 5927 5928 5928 5929 5930 5930 5931 5932 5932 5933 5933 5934 5935 5935 5936 5936 5937 5938
5886 5887 5888 5890 5891 5893 5894 5894 5895 5897 5900 5900 5900 5900 5899 5900 5902 5903 5903 5904 5905 5906 5906 5907 5908 5909 5909 5909 5910 5911 5913 5915 5916 5916 5917 5918 5918 5919 5920 5920 5920 5921 5922 5922 5923 5924 5924 5925 5925 5925 5926 5926 5927 5927 5928 5928 5927 5927 5927 5928 5928 5928 5928 5929 5929 5929 5929 5930 5930 5930 5929 5929 5929 5929 5928 5928 5928 5928 5928 5929 5930 5930 5931 5931 5932 5933 5933 5934 5934 5935 5936 5936 5937 5937 5938 5939 5939
5885 5886 5887 5889 5890 5892 5894 5895 5897 5899 5899 5899 5900 5900 5901 5902 5904 5904 5904 5904 5905 5906 5907 5908 5909 5910 5910 5910 5910 5912 5913 5915 5916 5917 5917 5918 5919 5920 5920 5921 5921 5922 5922 5923 5924 5925 5925 5926 5926 5926 5927 5927 5928 5928 5929 5929 5929 5929 5929 5929 5929 5929 5930 5930 5930 5931 5931 5931 5931 5931 5931 5931 5931 5931 5930 5930 5930 5930 5930 5931 5931 5932 5933 5933 5934 5935 5935 5936 5936 5937 5937 5938 5938 5939 5940 5941 5941
5883 5885 5886 5888 5889 5891 5894 5896 5898 5897 5896 5896 5899 5900 5901 5903 5905 5905 5904 5904 5906 5906 5907 5909 5910 5910 5911 5911 5912 5913 5914 5915 5916 5917 5918 5918 5919 5920 5921 5922 5922 5922 5923 5924 5925 5925 5926 5927 5927 5927 5928 5928 5929 5929 5930 5930 5930 5930 5931 5931 5931 5931 5931 5932 5932 5932 5932 5933 5933 5933 5933 5933 5933 5933 5932 5932 5932 5932 5932 5933 5933 5934 5934 5935 5936 5936 5937 5938 5938 5939 5939 5940 5940 5941 5942 5942 5943
5882 5884 5885 5886 5888 5891 5894 5896 5896 5896 5895 5896 5898 5899 5901 5902 5903 5903 5903 5904 5905 5906 5908 5909 5910 5910 5911 5912 5913 5914 5915 5915 5916 5917 5918 5919 5919 5920 5921 5922 5923 5923 5924 5925 5926 5926 5927 5927 5928 5928 5929 5929 5930 5930 5931 5931 5932 5932 5932 5932 5933 5932 5932 5933 5933 5933 5934 5934 5934 5935 5935 5935 5934 5934 5934 5934 5934 5934 5934 5935 5935 5936 5936 5937 5938 5938 5939 5939 5940 5941 5941 5942 5943 5943 5944 5945 5946
5881 5883 5883 5885 5888 5891 5893 5894 5894 5895 5896 5897 5898 5899 5900 5901 5902 5902 5903 5904 5905 5906 5908 5909 5910 5910 5911 5912 5913 5914 5916 5916 5917 5918 5919 5919 5920 5921 5921 5922 5923 5924 5924 5925 5926 5927 5928 5928 5928 5929 5930 5930 5931 5931 5932 5932 5933 5933 5934 5934 5934 5934 5934 5934 5935 5935 5935 5935 5936 5936 5936 5936 5936 5936 5936 5936 5936 5936 5936 5937 5937 5937 5938 5939 5939 5940 5941 5941 5942 5943 5944 5945 5945 5946 5946 5947 5948
5880 5881 5882 5883 5887 5890 5892 5893 5893 5895 5895 5895 5897 5898 5899 5901 5902 5903 5904 5905 5906 5907 5909 5910 5910 5911 5911 5912 5913 5915 5916 5917 5917 5919 5920 5920 5921 5921 5922 5923 5924 5925 5925 5926 5927 5928 5928 5929 5929 5930 5931 5931 5932 5932 5933 5934 5934 5935 5935 5936 5936 5936 5936 5936 5936 5936 5936 5937 5937 5937 5938 5938 5938 5938 5938 5938 5938 5938 5938 5938 5939 5939 5940 5940 5941 5942 5943 5944 5944 5945 5946 5947 5948 5948 5949 5950 5950
5878 5880 5881 5882 5885 5888 5890 5892 5893 5893 5893 5894 5895 5896 5899 5900 5901 5903 5904 5905 5906 5907 5909 5910 5911 5911 5912 5913 5913 5915 5916 5917 5918 5919 5920 5921 5921 5922 5922 5923 5924 5925 5926 5927 5927 5928 5929 5930 5930 5931 5931 5932 5933 5933 5934 5935 5935 5936 5936 5937 5938 5938 5938 5937 5937 5938 5938 5938 5938 5939 5939 5939 5940 5940 5940 5940 5940 5940 5941 5940 5941 5941 5942 5942 5943 5944 5945 5946 5947 5947 5948 5949 5950 5950 5951 5952 5953
5877 5879 5880 5881 5883 5886 5889 5891 5892 5892 5892 5894 5895 5895 5898 5900 5901 5902 5903 5904 5905 5907 5908 5910 5911 5911 5912 5913 5913 5915 5916 5917 5919 5920 5921 5921 5922 5922 5923 5923 5925 5926 5927 5927 5928 5928 5929 5930 5931 5932 5932 5933 5934 5935 5935 5936 5936 5937 5938 5938 5939 5939 5939 5939 5939 5939 5939 5939 5940 5940 5941 5941 5942 5942 5942 5942 5942 5942 5943 5943 5943 5943 5944 5944 5945 5946 5947 5947 5948 5949 5949 5950 5951 5952 5952 5953 5954
5876 5878 5879 5880 5881 5884 5887 5889 5891 5891 5892 5894 5895 5896 5898 5899 5901 5902 5902 5903 5904 5907 5908 5909 5911 5911 5912 5913 5914 5915 5916 5918 5919 5920 5921 5922 5922 5923 5923 5924 5925 5926 5927 5928 5928 5929 5930 5931 5932 5932 5933 5934 5934 5935 5936 5937 5937 5938 5939 5940 5940 5941 5941 5941 5940 5940 5940 5941 5941 5942 5942 5943 5943 5944 5944 5944 5944 5944 5944 5944 5945 5945 5945 5946 5947 5947 5948 5949 5950 5950 5951 5951 5952 5952 5953 5954 5955
5875 5877 5878 5879 5880 5883 5885 5887 5889 5889 5891 5893 5894 5895 5898 5899 5900 5901 5902 5903 5904 5907 5908 5909 5910 5911 5912 5914 5914 5915 5916 5917 5918 5920 5921 5922 5923 5923 5924 5925 5925 5926 5927 5928 5929 5930 5931 5932 5932 5933 5934 5934 5935 5936 5937 5938 5938 5939 5940 5941 5941 5942 5942 5942 5942 5942 5942 5942 5943 5943 5944 5944 5945 5945 5945 5946 5946 5946 5946 5946 5946 5947 5947 5948 5948 5949 5949 5950 5951 5951 5952 5952 5953 5953 5954 5955 5956
5874 5876 5877 5879 5880 5882 5884 5886 5887 5888 5890 5892 5893 5894 5897 5899 5900 5901 5902 5902 5903 5905 5907 5908 5909 5911 5912 5914 5915 5915 5916 5917 5918 5919 5921 5922 5923 5924 5924 5924 5925 5926 5927 5928 5930 5931 5932 5932 5933 5934 5935 5935 5936 5937 5938 5939 5939 5940 5941 5942 5942 5943 5943 5943 5943 5943 5943 5944 5944 5945 5945 5946 5946 5946 5947 5947 5947 5948 5948 5948 5948 5949 5949 5949 5950 5950 5951 5951 5952 5952 5952 5953 5954 5954 5955 5956 5957
5872 5873 5875 5878 5880 5882 5883 5885 5887 5888 5889 5891 5893 5894 5896 5898 5899 5900 5902 5902 5902 5903 5906 5907 5908 5910 5912 5913 5914 5915 5916 5917 5918 5919 5921 5922 5923 5924 5924 5924 5925 5927 5927 5929 5930 5931 5932 5933 5934 5935 5935 5936 5937 5937 5938 5940 5940 5941 5942 5943 5943 5944 5944 5945 5944 5945 5945 5945 5946 5946 5946 5947 5947 5948 5948 5948 5949 5949 5949 5950 5950 5950 5950 5951 5951 5952 5952 5952 5952 5953 5953 5954 5954 5955 5956 5957 5958
5869 5871 5873 5876 5879 5881 5882 5884 5886 5888 5889 5890 5892 5893 5895 5896 5898 5899 5901 5901 5902 5904 5905 5907 5907 5909 5911 5912 5914 5915 5916 5917 5918 5919 5920 5922 5923 5924 5924 5925 5926 5927 5928 5929 5930 5932 5932 5933 5935 5935 5936 5937 5937 5938 5939 5941 5942 5942 5943 5943 5944 5945 5946 5946 5946 5946 5946 5947 5947 5947 5948 5948 5949 5949 5949 5950 5950 5950 5950 5951 5951 5952 5952 5952 5953 5953 5953 5953 5953 5954 5954 5955 5955 5956 5957 5958 5959
5868 5869 5871 5874 5877 5879 5880 5882 5885 5887 5888 5890 5892 5894 5895 5896 5897 5899 5900 5901 5902 5904 5905 5906 5907 5908 5909 5911 5913 5915 5916 5917 5918 5919 5920 5921 5922 5923 5924 5925 5926 5927 5928 5929 5930 5932 5933 5934 5935 5936 5937 5938 5938 5939 5940 5941 5942 5943 5943 5944 5945 5945 5946 5947 5947 5948 5948 5948 5948 5949 5949 5949 5950 5950 5951 5951 5951 5951 5952 5952 5952 5953 5953 5954 5954 5954 5954 5954 5955 5955 5956 5956 5956 5957 5958 5959 5960
5866 5868 5870 5873 5876 5878 5879 5881 5883 5885 5888 5890 5892 5893 5895 5896 5898 5899 5900 5900 5900 5902 5904 5905 5906 5907 5909 5910 5912 5914 5916 5917 5918 5918 5919 5920 5922 5923 5924 5925 5927 5928 5929 5930 5931 5932 5933 5934 5935 5936 5938 5939 5939 5940 5941 5942 5943 5943 5944 5944 5945 5946 5947 5947 5948 5948 5949 5949 5949 5950 5950 5950 5950 5951 5951 5952 5952 5953 5953 5953 5953 5954 5954 5954 5955 5955 5955 5956 5956 5957 5957 5957 5958 5958 5959 5960 5960
5864 5866 5868 5871 5874 5876 5877 5879 5881 5884 5887 5889 5890 5892 5894 5895 5896 5899 5900 5899 5900 5901 5903 5904 5905 5907 5908 5910 5911 5913 5915 5917 5917 5918 5919 5920 5921 5923 5924 5925 5927 5928 5930 5931 5931 5932 5933 5935 5935 5936 5938 5939 5940 5941 5942 5942 5943 5943 5944 5944 5945 5946 5947 5948 5949 5949 5950 5950 5950 5950 5951 5951 5951 5952 5952 5953 5953 5953 5954 5954 5954 5955 5955 5955 5956 5956 5957 5957 5957 5958 5958 5959 5959 5959 5960 5961 5961
5862 5865 5868 5870 5872 5874 5875 5877 5880 5883 5886 5888 5889 5891 5893 5894 5895 5896 5898 5899 5899 5900 5901 5903 5904 5906 5907 5909 5911 5912 5914 5916 5917 5918 5919 5920 5921 5922 5924 5925 5926 5928 5929 5931 5931 5932 5933 5935 5935 5936 5938 5940 5941 5942 5942 5942 5943 5944 5944 5945 5946 5947 5947 5948 5949 5950 5951 5951 5951 5951 5952 5952 5952 5953 5953 5953 5954 5954 5954 5955 5955 5955 5956 5956 5957 5957 5958 5958 5958 5959 5959 5960 5960 5960 5961 5961 5961
5860 5864 5867 5869 5870 5871 5873 5876 5879 5882 5885 5887 5888 5890 5891 5892 5894 5895 5896 5898 5899 5900 5901 5902 5904 5905 5907 5909 5910 5912 5913 5915 5916 5917 5918 5919 5920 5922 5923 5925 5926 5927 5929 5930 5932 5933 5934 5935 5935 5936 5938 5939 5941 5942 5942 5943 5943 5944 5945 5946 5946 5947 5948 5949 5949 5950 5951 5952 5952 5953 5953 5953 5953 5953 5954 5954 5955 5955 5955 5955 5956 5956 5956 5957 5958 5958 5958 5959 5959 5959 5960 5960 5960 5961 5961 5961 5962
5858 5863 5866 5867 5868 5870 5872 5875 5878 5880 5883 5883 5885 5887 5888 5890 5892 5893 5895 5896 5898 5900 5901 5901 5903 5905 5906 5908 5910 5911 5913 5914 5916 5917 5918 5919 5920 5921 5922 5924 5925 5927 5928 5930 5931 5932 5934 5935 5935 5937 5938 5939 5941 5942 5942 5943 5944 5945 5946 5947 5947 5948 5948 5949 5949 5950 5951 5952 5953 5953 5953 5954 5954 5954 5954 5955 5955 5955 5956 5956 5957 5957 5958 5958 5959 5959 5959 5959 5960 5960 5960 5960 5961 5961 5961 5962 5962
5858 5862 5864 5865 5867 5869 5870 5873 5876 5878 5878 5879 5881 5884 5887 5889 5890 5893 5895 5895 5896 5898 5899 5900 5902 5904 5906 5907 5909 5910 5912 5913 5915 5917 5918 5919 5920 5920 5921 5923 5924 5926 5928 5929 5930 5932 5933 5934 5935 5937 5938 5939 5940 5942 5943 5944 5944 5945 5946 5947 5948 5948 5949 5949 5950 5950 5951 5952 5952 5953 5954 5954 5954 5954 5955 5955 5955 5956 5956 5957 5958 5958 5959 5959 5959 5959 5959 5960 5960 5960 5960 5961 5961 5962 5962 5962 5963
5858 5861 5862 5863 5866 5867 5869 5871 5874 5874 5875 5877 5879 5883 5886 5888 5889 5891 5894 5894 5895 5897 5898 5899 5900 5902 5905 5907 5908 5909 5910 5912 5913 5915 5917 5918 5919 5919 5920 5922 5924 5926 5927 5928 5929 5931 5932 5933 5935 5936 5937 5938 5940 5942 5943 5944 5945 5946 5947 5947 5948 5948 5949 5949 5950 5950 5951 5952 5952 5953 5954 5954 5954 5955 5955 5955 5955 5956 5957 5957 5958 5959 5959 5959 5959 5959 5960 5960 5960 5961 5961 5962 5962 5962 5963 5963 5963
5857 5858 5859 5862 5864 5865 5867 5869 5871 5871 5872 5875 5878 5881 5884 5887 5888 5889 5891 5892 5893 5895 5896 5898 5899 5901 5903 5905 5907 5908 5909 5911 5912 5914 5915 5917 5918 5919 5920 5922 5923 5925 5926 5927 5929 5930 5931 5932 5934 5936 5937 5938 5939 5941 5943 5944 5946 5946 5947 5947 5948 5948 5948 5949 5950 5950 5951 5951 5952 5953 5953 5954 5954 5955 5955 5955 5956 5956 5957 5958 5958 5959 5959 5959 5959 5959 5960 5960 5961 5961 5962 5962 5963 5963 5963 5964 5964
5854 5854 5856 5859 5861 5863 5864 5866 5868 5868 5870 5873 5876 5878 5881 5884 5886 5887 5888 5890 5891 5893 5895 5897 5898 5900 5902 5903 5905 5906 5908 5910 5911 5912 5914 5915 5917 5918 5920 5922 5923 5924 5926 5927 5928 5929 5930 5931 5933 5935 5937 5938 5939 5940 5942 5944 5945 5946 5947 5947 5948 5948 5949 5949 5950 5951 5951 5952 5953 5953 5954 5954 5954 5954 5955 5955 5956 5957 5957 5958 5958 5958 5959 5959 5959 5960 5960 5961 5962 5962 5963 5963 5963 5964 5964 5964 5964
5849 5850 5852 5855 5857 5859 5860 5863 5864 5864 5869 5873 5874 5876 5878 5881 5884 5884 5886 5888 5890 5891 5893 5895 5897 5898 5900 5902 5903 5905 5907 5908 5910 5911 5912 5914 5916 5918 5920 5922 5923 5924 5925 5926 5927 5928 5930 5931 5932 5934 5936 5938 5939 5940 5941 5943 5944 5945 5946 5947 5948 5949 5949 5950 5950 5951 5952 5952 5953 5953 5954 5954 5954 5954 5955 5955 5956 5957 5957 5958 5958 5958 5958 5959 5959 5960 5960 5961 5962 5962 5963 5963 5964 5964 5964 5964 5964
5844 5845 5848 5850 5853 5855 5856 5859 5860 5863 5870 5873 5872 5873 5876 5880 5881 5881 5884 5886 5888 5890 5892 5893 5895 5896 5898 5900 5902 5904 5906 5907 5908 5910 5911 5913 5916 5918 5919 5921 5922 5923 5923 5924 5926 5927 5928 5930 5932 5933 5935 5937 5938 5939 5940 5942 5943 5944 5946 5947 5948 5948 5949 5950 5950 5951 5951 5952 5952 5953 5953 5954 5955 5955 5955 5956 5956 5957 5957 5957 5958 5958 5958 5958 5959 5960 5960 5961 5962 5962 5963 5963 5963 5964 5964 5964 5964
5841 5843 5845 5847 5849 5851 5853 5856 5858 5864 5870 5870 5870 5871 5874 5877 5878 5879 5883 5885 5887 5889 5891 5892 5894 5895 5896 5898 5899 5901 5904 5906 5907 5908 5910 5912 5915 5916 5918 5919 5920 5921 5922 5923 5924 5926 5927 5929 5930 5932 5933 5935 5937 5938 5939 5941 5942 5943 5945 5946 5947 5948 5948 5949 5950 5950 5951 5951 5952 5952 5953 5953 5954 5955 5955 5955 5956 5956 5957 5957 5957 5958 5958 5959 5959 5960 5960 5961 5961 5962 5963 5963 5963 5963 5964 5964 5964
5839 5842 5844 5846 5848 5850 5852 5855 5859 5865 5870 5869 5868 5869 5872 5876 5876 5878 5881 5883 5885 5888 5889 5891 5893 5894 5895 5897 5898 5899 5900 5903 5905 5906 5909 5911 5913 5915 5916 5918 5919 5920 5921 5922 5923 5924 5926 5928 5929 5931 5932 5933 5935 5937 5938 5940 5941 5942 5943 5945 5945 5946 5947 5948 5949 5950 5950 5951 5951 5952 5952 5953 5953 5954 5954 5955 5955 5956 5956 5957 5957 5957 5958 5958 5959 5960 5960 5960 5961 5961 5962 5963 5963 5963 5964 5964 5964
5837 5839 5841 5843 5846 5849 5852 5854 5858 5865 5868 5866 5866 5868 5872 5876 5876 5877 5879 5881 5884 5886 5888 5890 5892 5894 5895 5896 5897 5897 5897 5899 5902 5905 5907 5909 5912 5913 5915 5917 5917 5919 5920 5922 5923 5924 5925 5927 5929 5930 5931 5933 5934 5935 5936 5938 5939 5941 5942 5943 5944 5945 5946 5947 5948 5949 5950 5951 5951 5952 5952 5953 5953 5954 5954 5955 5956 5956 5956 5957 5957 5957 5958 5958 5959 5959 5960 5960 5960 5961 5962 5962 5963 5963 5963 5964 5964
5835 5836 5838 5842 5845 5848 5850 5852 5856 5861 5863 5863 5864 5867 5871 5875 5875 5876 5877 5880 5882 5884 5886 5888 5890 5892 5894 5895 5896 5897 5897 5898 5901 5903 5905 5907 5910 5912 5914 5915 5916 5918 5920 5921 5922 5923 5925 5926 5928 5929 5931 5932 5934 5935 5936 5937 5938 5939 5940 5942 5943 5944 5945 5946 5947 5948 5949 5950 5951 5952 5952 5953 5953 5954 5955 5956 5956 5957 5957 5957 5957 5958 5958 5958 5959 5959 5959 5960 5960 5961 5961 5962 5962 5963 5963 5964 5964
5833 5835 5839 5842 5843 5844 5847 5850 5853 5856 5859 5860 5862 5865 5869 5872 5874 5875 5877 5879 5881 5882 5885 5886 5888 5890 5892 5894 5895 5896 5897 5898 5900 5902 5904 5906 5909 5910 5912 5913 5915 5917 5919 5920 5922 5923 5924 5926 5927 5929 5930 5931 5932 5934 5935 5936 5937 5938 5939 5940 5942 5943 5944 5945 5946 5947 5948 5949 5950 5951 5952 5952 5953 5954 5955 5956 5956 5957 5957 5957 5957 5958 5958 5958 5959 5959 5959 5959 5960 5960 5961 5961 5962 5962 5963 5964 5964
5830 5834 5837 5839 5840 5842 5845 5847 5849 5852 5855 5858 5861 5864 5867 5870 5873 5875 5876 5878 5879 5881 5883 5885 5887 5889 5890 5892 5894 5895 5896 5898 5900 5902 5903 5904 5906 5907 5910 5912 5914 5916 5918 5919 5920 5922 5923 5925 5926 5927 5928 5930 5931 5932 5934 5935 5936 5937 5938 5939 5940 5942 5943 5944 5945 5946 5947 5948 5949 5950 5951 5952 5953 5954 5955 5956 5956 5957 5957 5957 5957 5958 5958 5958 5959 5959 5959 5959 5960 5960 5960 5961 5961 5962 5963 5963 5964
5828 5830 5833 5836 5838 5840 5843 5845 5847 5850 5852 5856 5860 5862 5864 5868 5871 5873 5874 5876 5878 5880 5882 5884 5886 5888 5889 5891 5892 5894 5895 5897 5899 5899 5899 5900 5902 5905 5908 5911 5913 5915 5916 5917 5919 5920 5921 5923 5924 5926 5927 5928 5929 5931 5933 5934 5935 5936 5937 5938 5939 5940 5941 5943 5944 5946 5946 5947 5948 5949 5950 5951 5952 5953 5954 5955 5956 5956 5957 5957 5957 5958 5958 5958 5958 5959 5959 5959 5959 5959 5959 5960 5960 5961 5961 5962 5963
5825 5827 5830 5833 5835 5838 5841 5843 5845 5847 5850 5853 5857 5860 5862 5866 5869 5872 5873 5874 5876 5878 5881 5883 5884 5886 5888 5889 5890 5892 5894 5895 5896 5896 5896 5899 5902 5903 5905 5907 5909 5912 5915 5916 5917 5918 5919 5920 5922 5924 5926 5927 5928 5929 5930 5932 5933 5934 5935 5936 5937 5938 5940 5941 5943 5944 5945 5946 5947 5948 5949 5950 5951 5952 5953 5954 5955 5956 5956 5957 5957 5958 5958 5958 5958 5959 5959 5959 5959 5959 5959 5959 5959 5960 5960 5961 5961
5821 5824 5827 5830 5832 5835 5838 5840 5842 5845 5847 5850 5854 5858 5861 5864 5867 5870 5872 5873 5875 5877 5879 5881 5882 5884 5885 5887 5888 5889 5891 5893 5894 5895 5896 5898 5901 5902 5903 5904 5907 5911 5913 5914 5915 5916 5917 5919 5921 5922 5924 5925 5927 5928 5929 5929 5930 5931 5932 5934 5935 5936 5937 5939 5941 5942 5943 5945 5946 5947 5948 5949 5950 5951 5952 5953 5954 5955 5956 5956 5957 5957 5958 5958 5958 5959 5959 5959 5959 5960 5959 5959 5959 5959 5959 5959 5960